Weather in Sutormino

Russia / Kaluga Oblast     54°44′12″N   37°09′09″E
temp.,
°C
wind,
m/s
gust,
m/s
humid.,
%
clouds,
%
prec.,
mm/h
press.,
hPa
HPBL,
m
23 april, fri
fri2300:00+8s4128638 0.0 1016293
03:00+6s4119019 0.0 1015270
06:00+6s4138997 0.1 1016333
09:00+11s6137278 0.2 1015657
12:00+15s8114974 0.1 10132272
15:00+14ssw61259100 0.3 10121548
18:00+6w3693100 4.6 1014285
21:00+6wnw1289100 5.2 1013264
24 april, sat
sat2400:00+5nne1193100 3.7 1011113
03:00+5wnw2493100 5.5 1010590
06:00+3nw3697100 2.6 1008505
09:00+3w2496100 3.6 1008624
12:00+3wnw369797 1.8 1008394
15:00+8w4560100 2.9 10061321
18:00+6wsw5780100 1.7 1007740
21:00+4wnw4986100 2.4 1007682
25 april, sun
sun2500:00+3wnw61377100 0.1 1008670
03:00+1w6138590 0.1 1010451
06:000wsw512905 0.0 1011522
09:00+4w797159 0.0 10111195
12:00+6wsw7957100 0.6 10111900
15:00+6sw8106248 1.5 10111491
18:00+6wsw576391 0.1 10101314
21:00+2wsw388071 0.3 1011187
26 april, mon
mon2600:000sw49845 0.0 1012209
03:000sw49865 0.0 1013245
06:000sw410855 0.0 1013332
09:00+4sw576730 0.0 10121042
12:00+7wsw5653100 0.3 10121762
15:00+8w5748100 0.5 10111977
18:00+7w35510 0.1 1010628
21:00+2w226424 0.1 101024
27 april, tue
tue2700:00+1wsw227290 0.0 101010
03:00+1w1177100 0.0 100914
06:00+1w3495100 0.4 1009199
09:00+2nnw129071 2.4 1008311
12:00+6w345898 0.9 10081535
15:00+8wsw465166 1.6 10071813
18:00+6wsw586043 0.4 1007654
21:00+2wsw38815 0.9 1009159